Location: London
(51.5074°N, 0.1278°W)
Time: 05:07:24
(UTC+01:00)

ISS - Pass Details

Date: 31 March 2018
Orbit: 402 x 408 km, 51.6° (Epoch: 19 July)

Event Time Altitude Azimuth Distance (km) Brightness Sun altitude
Rises 21:41:16 0° 275° (W) 2,357 1.1 -19.4°
Reaches altitude 10° 21:43:22 10° 275° (W) 1,495 -0.1 -19.7°
Enters shadow 21:46:41 87° 300° (WNW) 423 -3.9 -20.1°
